Location: Newark
(34.9500°N, 139.9667°E)
Time: 17:03:54
(UTC+00:00)

Altair - Pass Details

Date: 14 December 2019
Orbit: 1502 x 1682 km, 47.2° (Epoch: 21 January)

Event Time Altitude Azimuth Distance (km) Brightness Sun altitude
Rises 11:19:44 0° 252° (WSW) 4,821 10.8 -46.3°
Reaches altitude 10° 11:22:58 10° 257° (WSW) 3,811 10.1 -46.9°
Enters shadow 11:29:11 41° 280° (W) 2,139 8.4 -48.2°
